This demonstration page uses our WeatherBlox Daily Observations layout. Learn more.

Hourly Observations for November 20, 2016

Temp ( °F °C ) Dew Point ( °F °C ) Humidity (%) Winds ( mph kmh ) Pressure ( in mb ) Visibility ( mi km ) Precip ( " mm )
12:15 am 00:15 Cloudy 41 5 28 -2 61 61 WNW 16 26 29.91 1013 10 16.09344 0 0
12:35 am 00:35 Cloudy 41 5 27 -3 57 57 WNW 17 28 29.91 1013 10 16.09344 0 0
12:55 am 00:55 Cloudy 39 4 27 -3 61 61 WNW 12 19 29.91 1013 10 16.09344 0 0
1:15 am 01:15 Mostly Cloudy 39 4 28 -2 65 65 W 16 26 29.91 1013 10 16.09344 0 0
1:35 am 01:35 Mostly Cloudy 39 4 30 -1 70 70 WNW 28 44 29.91 1013 10 16.09344 0 0
1:55 am 01:55 Cloudy 39 4 30 -1 70 70 WNW 15 24 29.91 1013 10 16.09344 0 0
2:15 am 02:15 Mostly Cloudy with Scattered Snow Showers 37 3 32 0 81 81 W 20 31 29.91 1013 10 16.09344 0 0
2:35 am 02:35 Clear 36 2 32 0 87 87 WNW 20 31 29.91 1013 10 16.09344 0 0
2:55 am 02:55 Clear 36 2 30 -1 81 81 WNW 12 19 29.91 1013 10 16.09344 0 0
3:15 am 03:15 Mostly Cloudy 37 3 30 -1 75 75 WNW 18 30 29.91 1013 10 16.09344 0 0
3:35 am 03:35 Cloudy 37 3 30 -1 75 75 WNW 15 24 29.91 1013 10 16.09344 0 0
3:55 am 03:55 Mostly Cloudy 37 3 30 -1 75 75 WNW 14 22 29.91 1013 10 16.09344 0 0
4:15 am 04:15 Mostly Cloudy 37 3 28 -2 70 70 WNW 18 30 29.91 1013 10 16.09344 0 0
4:35 am 04:35 Cloudy 37 3 28 -2 70 70 WNW 15 24 29.91 1013 10 16.09344 0 0
4:55 am 04:55 Cloudy 37 3 28 -2 70 70 WNW 13 20 29.91 1013 10 16.09344 0 0
5:15 am 05:15 Partly Cloudy 37 3 27 -3 65 65 WNW 17 28 29.91 1013 10 16.09344 0 0
5:35 am 05:35 Mostly Cloudy 37 3 27 -3 65 65 W 12 19 29.91 1013 10 16.09344 0 0
5:55 am 05:55 Cloudy 37 3 27 -3 65 65 WNW 16 26 29.91 1013 10 16.09344 0 0
6:15 am 06:15 Cloudy 37 3 27 -3 65 65 W 18 30 29.91 1013 10 16.09344 0 0
6:35 am 06:35 Cloudy 37 3 27 -3 65 65 W 9 15 29.91 1013 10 16.09344 0 0
6:55 am 06:55 Cloudy 37 3 27 -3 65 65 W 9 15 29.91 1013 10 16.09344 0 0
7:15 am 07:15 Cloudy 37 3 27 -3 65 65 W 13 20 29.91 1013 10 16.09344 0 0
7:35 am 07:35 Mostly Cloudy 37 3 27 -3 65 65 WNW 17 28 29.91 1013 10 16.09344 0 0
7:55 am 07:55 Mostly Cloudy 39 4 27 -3 61 61 WNW 18 30 29.94 1014 10 16.09344 0 0
8:15 am 08:15 Partly Cloudy 39 4 27 -3 61 61 W 22 35 29.94 1014 10 16.09344 0 0
8:35 am 08:35 Mostly Cloudy 41 5 27 -3 57 57 WNW 21 33 29.91 1013 10 16.09344 0 0
8:55 am 08:55 Partly Cloudy 41 5 27 -3 57 57 WNW 28 44 29.91 1013 10 16.09344 0 0
9:15 am 09:15 Sunny 41 5 25 -4 53 53 WNW 24 39 29.91 1013 10 16.09344 0 0
9:35 am 09:35 Partly Cloudy 41 5 23 -5 49 49 WNW 33 54 29.91 1013 10 16.09344 0 0
9:55 am 09:55 Sunny 41 5 23 -5 49 49 WNW 35 56 29.91 1013 10 16.09344 0 0
10:15 am 10:15 Partly Cloudy 43 6 23 -5 46 46 W 29 46 29.91 1013 10 16.09344 0 0
10:35 am 10:35 Partly Cloudy 43 6 25 -4 49 49 WNW 35 56 29.91 1013 10 16.09344 0 0
10:55 am 10:55 Mostly Cloudy 43 6 23 -5 46 46 NW 26 43 29.91 1013 10 16.09344 0 0
11:15 am 11:15 Mostly Cloudy 43 6 25 -4 49 49 W 39 63 29.91 1013 10 16.09344 0 0
11:35 am 11:35 Partly Cloudy 43 6 25 -4 49 49 WNW 26 43 29.91 1013 10 16.09344 0 0
11:55 am 11:55 Sunny 43 6 23 -5 46 46 WNW 40 65 29.88 1012 10 16.09344 0 0
12:15 pm 12:15 Sunny 45 7 25 -4 46 46 WNW 45 72 29.88 1012 10 16.09344 0 0
12:35 pm 12:35 Sunny 43 6 25 -4 49 49 WNW 35 56 29.88 1012 10 16.09344 0 0
12:55 pm 12:55 Partly Cloudy 45 7 25 -4 46 46 WNW 32 52 29.88 1012 10 16.09344 0 0
1:15 pm 13:15 Mostly Cloudy 45 7 25 -4 46 46 WNW 31 50 29.88 1012 10 16.09344 0 0
1:35 pm 13:35 Mostly Cloudy 43 6 25 -4 49 49 WNW 41 67 29.85 1011 10 16.09344 0 0
1:55 pm 13:55 Partly Cloudy 45 7 25 -4 46 46 WNW 38 61 29.85 1011 10 16.09344 0 0
2:15 pm 14:15 Partly Cloudy 43 6 25 -4 49 49 W 33 54 29.85 1011 10 16.09344 0 0
2:35 pm 14:35 Partly Cloudy 43 6 25 -4 49 49 WNW 33 54 29.88 1012 10 16.09344 0 0
2:55 pm 14:55 Mostly Cloudy 43 6 25 -4 49 49 WNW 35 56 29.88 1012 10 16.09344 0 0
3:15 pm 15:15 Mostly Cloudy 41 5 25 -4 53 53 WNW 29 46 29.88 1012 10 16.09344 0 0
3:35 pm 15:35 Partly Cloudy 41 5 25 -4 53 53 WNW 38 61 29.91 1013 10 16.09344 0 0
3:55 pm 15:55 Mostly Cloudy 41 5 23 -5 49 49 WNW 36 57 29.91 1013 10 16.09344 0 0
4:15 pm 16:15 Partly Cloudy 39 4 23 -5 52 52 WNW 35 56 29.91 1013 10 16.09344 0 0
4:35 pm 16:35 Partly Cloudy 37 3 23 -5 56 56 WNW 32 52 29.91 1013 10 16.09344 0 0
4:55 pm 16:55 Clear 37 3 23 -5 56 56 WNW 35 56 29.91 1013 10 16.09344 0 0
5:15 pm 17:15 Clear 37 3 23 -5 56 56 WNW 33 54 29.94 1014 10 16.09344 0 0
5:35 pm 17:35 Clear 37 3 23 -5 56 56 WNW 35 56 29.94 1014 10 16.09344 0 0
5:55 pm 17:55 Clear 37 3 23 -5 56 56 WNW 32 52 29.94 1014 10 16.09344 0 0
6:15 pm 18:15 Clear 37 3 23 -5 56 56 WNW 36 57 29.94 1014 10 16.09344 0 0
6:35 pm 18:35 Clear 37 3 23 -5 56 56 WNW 41 67 29.94 1014 10 16.09344 0 0
6:55 pm 18:55 Clear 36 2 23 -5 60 60 W 39 63 29.91 1013 10 16.09344 0 0
7:15 pm 19:15 Partly Cloudy 36 2 23 -5 60 60 WNW 33 54 29.91 1013 10 16.09344 0 0
7:35 pm 19:35 Clear 36 2 23 -5 60 60 WNW 36 57 29.91 1013 10 16.09344 0 0
7:55 pm 19:55 Clear 36 2 23 -5 60 60 WNW 32 52 29.91 1013 10 16.09344 0 0
8:15 pm 20:15 Clear 36 2 23 -5 60 60 WNW 37 59 29.91 1013 10 16.09344 0 0
8:35 pm 20:35 Mostly Cloudy 36 2 23 -5 60 60 WNW 30 48 29.91 1013 10 16.09344 0 0
8:55 pm 20:55 Cloudy 36 2 23 -5 60 60 WNW 35 56 29.91 1013 10 16.09344 0 0
9:15 pm 21:15 Mostly Cloudy 36 2 23 -5 60 60 WNW 30 48 29.91 1013 10 16.09344 0 0
9:35 pm 21:35 Mostly Cloudy 36 2 23 -5 60 60 WNW 28 44 29.91 1013 10 16.09344 0 0
9:55 pm 21:55 Mostly Cloudy 36 2 23 -5 60 60 WNW 29 46 29.91 1013 10 16.09344 0 0
10:15 pm 22:15 Partly Cloudy 36 2 23 -5 60 60 WNW 24 39 29.91 1013 10 16.09344 0 0
10:35 pm 22:35 Partly Cloudy 36 2 21 -6 56 56 WNW 31 50 29.91 1013 10 16.09344 0 0
10:55 pm 22:55 Clear 36 2 21 -6 56 56 W 25 41 29.91 1013 10 16.09344 0 0
11:15 pm 23:15 Clear 36 2 21 -6 56 56 WNW 26 43 29.91 1013 10 16.09344 0 0
11:35 pm 23:35 Clear 36 2 21 -6 56 56 WNW 24 39 29.91 1013 10 16.09344 0 0
11:55 pm 23:55 Clear 36 2 21 -6 56 56 WNW 20 31 29.91 1013 10 16.09344 0 0

Powered by AerisWeather